QPF
0.08 0.10 0.09 0.06 0.05 0.03 0.02 0.02 0.03 0.04 0.04 0.03 0.03 0.02 0.02 0.02 0.02 0.02 0.02 0.01 0.01 0.03 0.05 0.05 0.04 0.04 0.03 0.03 0.03 0.03 0.02 0.01 0.01 0.01 0.01 0.01 0.01 0.01 0.01 0.01 0.01 0.01 0.01
0.07 0.09 0.09 0.07 0.05 0.03 0.03 0.04 0.04 0.04 0.04 0.03 0.03 0.03 0.03 0.02 0.02 0.03 0.03 0.02 0.01 0.01 0.02 0.05 0.06 0.05 0.05 0.05 0.04 0.03 0.02 0.02 0.02 0.01 0.01 0.01 0.01 0.01 0.01 0.01 0.01 0.01 0.01
0.04 0.05 0.06 0.07 0.06 0.03 0.03 0.03 0.03 0.04 0.04 0.04 0.03 0.03 0.02 0.02 0.02 0.03 0.03 0.02 0.01 0.01 0.01 0.03 0.05 0.06 0.06 0.06 0.05 0.04 0.03 0.03 0.02 0.02 0.02 0.01 0.01 0.01 0.01 0.01 0.01 0.01 0.01
0.05 0.04 0.04 0.05 0.05 0.05 0.03 0.02 0.02 0.03 0.03 0.03 0.03 0.03 0.03 0.02 0.01 0.01 0.01 0.01 0.01 0.01 0.01 0.01 0.02 0.04 0.06 0.07 0.05 0.05 0.04 0.04 0.03 0.02 0.02 0.01 0.01 0.01 0.01 0.01 0.01 0.01 0.01
0.07 0.06 0.04 0.04 0.04 0.05 0.05 0.03 0.01 0.02 0.03 0.03 0.03 0.03 0.04 0.03 0.02 0.01 0.01 0.01 0.01 0.01 0.01 0.01 0.01 0.02 0.03 0.06 0.06 0.06 0.05 0.05 0.05 0.04 0.03 0.02 0.01 0.01 0.01 0.01 0.01 0.01 0.01
0.11 0.07 0.05 0.04 0.03 0.04 0.05 0.05 0.03 0.03 0.03 0.03 0.02 0.03 0.03 0.04 0.03 0.02 0.02 0.02 0.01 0.01 0.01 0.00 0.01 0.01 0.02 0.03 0.04 0.04 0.05 0.06 0.06 0.05 0.04 0.02 0.02 0.01 0.01 0.01 0.01 0.01 0.01
0.15 0.13 0.08 0.04 0.03 0.03 0.03 0.05 0.06 0.04 0.02 0.02 0.02 0.03 0.02 0.02 0.02 0.02 0.02 0.02 0.02 0.02 0.02 0.01 0.01 0.01 0.01 0.02 0.03 0.03 0.03 0.04 0.06 0.07 0.07 0.05 0.04 0.02 0.02 0.01 0.01 0.01 0.01
0.15 0.16 0.14 0.09 0.05 0.04 0.03 0.04 0.06 0.05 0.03 0.02 0.03 0.03 0.03 0.03 0.01 0.01 0.01 0.01 0.02 0.02 0.02 0.02 0.02 0.01 0.01 0.01 0.02 0.02 0.02 0.03 0.05 0.05 0.07 0.08 0.07 0.05 0.04 0.03 0.02 0.01 0.01
0.15 0.16 0.15 0.11 0.07 0.06 0.05 0.04 0.05 0.07 0.07 0.04 0.03 0.04 0.04 0.03 0.02 0.01 0.01 0.01 0.02 0.02 0.02 0.02 0.03 0.02 0.01 0.01 0.02 0.02 0.02 0.03 0.04 0.05 0.06 0.07 0.07 0.07 0.06 0.04 0.03 0.02 0.03
0.16 0.15 0.15 0.15 0.12 0.07 0.06 0.05 0.04 0.05 0.07 0.06 0.04 0.03 0.02 0.02 0.02 0.02 0.01 0.01 0.02 0.03 0.03 0.03 0.03 0.03 0.03 0.02 0.02 0.02 0.02 0.02 0.03 0.04 0.04 0.05 0.06 0.06 0.06 0.04 0.03 0.02 0.02
0.16 0.17 0.14 0.14 0.15 0.13 0.09 0.07 0.06 0.04 0.03 0.05 0.05 0.03 0.02 0.01 0.02 0.02 0.02 0.01 0.01 0.02 0.03 0.04 0.04 0.03 0.03 0.03 0.03 0.02 0.02 0.01 0.02 0.02 0.03 0.04 0.06 0.06 0.06 0.04 0.03 0.02 0.02
0.11 0.16 0.20 0.17 0.14 0.12 0.09 0.07 0.06 0.05 0.04 0.03 0.04 0.04 0.02 0.01 0.02 0.02 0.02 0.02 0.02 0.02 0.02 0.03 0.04 0.04 0.03 0.03 0.03 0.03 0.02 0.02 0.02 0.02 0.02 0.04 0.06 0.06 0.05 0.04 0.03 0.02 0.03
0.07 0.11 0.15 0.19 0.19 0.17 0.13 0.08 0.05 0.04 0.04 0.03 0.03 0.04 0.03 0.02 0.01 0.02 0.02 0.02 0.01 0.02 0.02 0.02 0.02 0.03 0.03 0.03 0.03 0.03 0.02 0.01 0.02 0.02 0.02 0.04 0.04 0.04 0.04 0.04 0.03 0.03 0.03
0.04 0.06 0.08 0.11 0.16 0.18 0.17 0.13 0.08 0.05 0.04 0.04 0.04 0.04 0.04 0.03 0.02 0.02 0.02 0.02 0.02 0.01 0.01 0.02 0.02 0.02 0.02 0.02 0.02 0.03 0.02 0.02 0.01 0.02 0.02 0.02 0.02 0.02 0.02 0.03 0.04 0.04 0.04
0.04 0.04 0.06 0.07 0.09 0.12 0.15 0.15 0.11 0.07 0.06 0.04 0.04 0.04 0.05 0.05 0.05 0.04 0.03 0.03 0.03 0.02 0.01 0.01 0.01 0.01 0.01 0.01 0.02 0.02 0.02 0.02 0.01 0.01 0.01 0.02 0.01 0.01 0.01 0.02 0.03 0.04 0.05
0.05 0.05 0.05 0.06 0.06 0.09 0.12 0.14 0.12 0.09 0.06 0.05 0.03 0.03 0.03 0.04 0.05 0.05 0.04 0.04 0.04 0.03 0.03 0.01 0.01 0.01 0.01 0.01 0.01 0.01 0.01 0.02 0.01 0.01 0.01 0.01 0.01 0.01 0.01 0.01 0.02 0.03 0.04
0.06 0.07 0.06 0.06 0.06 0.07 0.09 0.11 0.11 0.10 0.08 0.07 0.05 0.03 0.03 0.03 0.03 0.04 0.05 0.04 0.03 0.04 0.03 0.02 0.01 0.01 0.02 0.02 0.01 0.01 0.01 0.01 0.01 0.01 0.01 0.01 0.01 0.01 0.01 0.01 0.02 0.02 0.03
0.06 0.08 0.08 0.06 0.05 0.05 0.07 0.08 0.09 0.08 0.08 0.08 0.07 0.05 0.04 0.03 0.04 0.03 0.04 0.05 0.05 0.04 0.04 0.03 0.02 0.02 0.01 0.01 0.02 0.02 0.01 0.01 0.01 0.02 0.02 0.02 0.01 0.01 0.01 0.01 0.01 0.02 0.03
0.05 0.07 0.09 0.08 0.05 0.04 0.05 0.07 0.08 0.07 0.07 0.07 0.07 0.07 0.06 0.05 0.05 0.05 0.05 0.05 0.05 0.06 0.06 0.04 0.03 0.03 0.02 0.02 0.02 0.02 0.02 0.02 0.02 0.02 0.02 0.02 0.01 0.01 0.01 0.01 0.01 0.01 0.02
0.06 0.08 0.09 0.08 0.06 0.05 0.05 0.05 0.07 0.07 0.06 0.06 0.06 0.07 0.08 0.07 0.07 0.07 0.07 0.06 0.06 0.06 0.07 0.06 0.04 0.04 0.04 0.03 0.02 0.02 0.02 0.02 0.02 0.02 0.02 0.02 0.02 0.01 0.01 0.01 0.01 0.01 0.01
0.07 0.07 0.10 0.09 0.06 0.05 0.06 0.05 0.05 0.06 0.07 0.06 0.05 0.05 0.06 0.08 0.07 0.07 0.06 0.06 0.06 0.06 0.06 0.06 0.06 0.05 0.04 0.03 0.03 0.02 0.02 0.02 0.02 0.02 0.02 0.02 0.02 0.02 0.02 0.02 0.01 0.01 0.02
0.07 0.07 0.07 0.10 0.07 0.04 0.05 0.06 0.05 0.05 0.06 0.06 0.06 0.05 0.05 0.07 0.08 0.09 0.08 0.06 0.06 0.06 0.06 0.06 0.05 0.05 0.03 0.03 0.02 0.02 0.02 0.02 0.03 0.02 0.02 0.03 0.03 0.03 0.03 0.02 0.02 0.02 0.02
0.06 0.06 0.06 0.07 0.09 0.06 0.05 0.04 0.05 0.05 0.05 0.06 0.06 0.05 0.05 0.05 0.06 0.06 0.07 0.07 0.07 0.06 0.06 0.06 0.06 0.04 0.03 0.03 0.02 0.02 0.02 0.02 0.02 0.02 0.03 0.03 0.03 0.03 0.03 0.03 0.03 0.03 0.02
0.05 0.06 0.05 0.04 0.05 0.07 0.06 0.04 0.04 0.04 0.04 0.04 0.05 0.05 0.04 0.04 0.04 0.05 0.05 0.06 0.06 0.05 0.05 0.04 0.03 0.02 0.02 0.02 0.02 0.03 0.03 0.03 0.03 0.02 0.03 0.04 0.03 0.03 0.03 0.03 0.03 0.03 0.03
0.02 0.04 0.06 0.06 0.05 0.05 0.06 0.04 0.04 0.03 0.04 0.05 0.05 0.05 0.06 0.05 0.05 0.05 0.05 0.05 0.05 0.04 0.05 0.04 0.03 0.03 0.03 0.03 0.04 0.04 0.04 0.04 0.04 0.03 0.03 0.03 0.03 0.03 0.03 0.03 0.03 0.03 0.02
0.02 0.02 0.03 0.05 0.06 0.05 0.05 0.05 0.04 0.03 0.04 0.04 0.05 0.05 0.06 0.06 0.05 0.05 0.05 0.05 0.04 0.04 0.04 0.04 0.04 0.03 0.03 0.03 0.03 0.03 0.03 0.04 0.04 0.03 0.02 0.02 0.02 0.02 0.03 0.03 0.03 0.03 0.02
MSLP
1024.18 1023.70 1023.14 1022.52 1021.89 1021.29 1020.72 1020.20 1019.73 1019.27 1018.80 1018.33 1017.84 1017.34 1016.85 1016.39 1015.99 1015.65 1015.37 1015.13 1014.94 1014.76 1014.61 1014.49 1014.41 1014.39 1014.46 1014.62 1014.86 1015.18 1015.56 1015.96 1016.37 1016.77 1017.16 1017.53 1017.89 1018.26 1018.64 1019.03 1019.44 1019.85 1020.26
1024.95 1024.44 1023.84 1023.19 1022.54 1021.89 1021.28 1020.71 1020.17 1019.63 1019.09 1018.53 1017.95 1017.38 1016.83 1016.32 1015.88 1015.51 1015.20 1014.95 1014.73 1014.53 1014.34 1014.18 1014.06 1013.98 1013.99 1014.08 1014.27 1014.54 1014.88 1015.27 1015.70 1016.13 1016.56 1017.00 1017.42 1017.85 1018.27 1018.70 1019.11 1019.52 1019.93
1025.62 1025.09 1024.48 1023.84 1023.18 1022.53 1021.91 1021.30 1020.71 1020.11 1019.48 1018.83 1018.15 1017.48 1016.83 1016.24 1015.72 1015.28 1014.92 1014.62 1014.38 1014.16 1013.96 1013.78 1013.63 1013.53 1013.50 1013.54 1013.68 1013.90 1014.20 1014.56 1014.97 1015.41 1015.88 1016.36 1016.84 1017.32 1017.80 1018.26 1018.71 1019.14 1019.55
1026.11 1025.58 1025.00 1024.38 1023.76 1023.14 1022.53 1021.92 1021.30 1020.65 1019.95 1019.20 1018.42 1017.63 1016.86 1016.15 1015.51 1014.98 1014.54 1014.18 1013.90 1013.66 1013.46 1013.28 1013.14 1013.04 1012.99 1013.00 1013.09 1013.26 1013.50 1013.82 1014.19 1014.62 1015.10 1015.60 1016.13 1016.66 1017.19 1017.70 1018.19 1018.65 1019.08
1026.39 1025.89 1025.34 1024.77 1024.20 1023.64 1023.07 1022.49 1021.87 1021.20 1020.45 1019.62 1018.74 1017.83 1016.93 1016.08 1015.31 1014.65 1014.11 1013.68 1013.34 1013.08 1012.88 1012.72 1012.59 1012.51 1012.46 1012.46 1012.51 1012.62 1012.80 1013.05 1013.38 1013.77 1014.22 1014.73 1015.28 1015.85 1016.43 1016.99 1017.52 1018.02 1018.50
1026.47 1025.99 1025.49 1024.98 1024.49 1023.99 1023.49 1022.96 1022.37 1021.70 1020.92 1020.05 1019.09 1018.08 1017.06 1016.08 1015.18 1014.39 1013.73 1013.21 1012.81 1012.51 1012.30 1012.14 1012.04 1011.96 1011.92 1011.90 1011.92 1011.98 1012.09 1012.27 1012.53 1012.86 1013.28 1013.77 1014.32 1014.91 1015.53 1016.13 1016.72 1017.27 1017.79
1026.38 1025.92 1025.46 1025.02 1024.59 1024.18 1023.75 1023.28 1022.74 1022.10 1021.34 1020.46 1019.46 1018.39 1017.29 1016.21 1015.19 1014.28 1013.51 1012.88 1012.40 1012.05 1011.80 1011.63 1011.52 1011.44 1011.39 1011.35 1011.33 1011.34 1011.39 1011.49 1011.68 1011.95 1012.31 1012.77 1013.30 1013.90 1014.54 1015.18 1015.81 1016.41 1016.99
1026.18 1025.74 1025.31 1024.92 1024.55 1024.20 1023.84 1023.44 1022.97 1022.39 1021.68 1020.82 1019.84 1018.76 1017.62 1016.48 1015.39 1014.38 1013.51 1012.78 1012.20 1011.77 1011.45 1011.23 1011.08 1010.97 1010.89 1010.82 1010.76 1010.71 1010.70 1010.74 1010.85 1011.06 1011.37 1011.79 1012.30 1012.89 1013.53 1014.19 1014.85 1015.50 1016.12
1025.94 1025.50 1025.09 1024.72 1024.39 1024.09 1023.79 1023.46 1023.05 1022.54 1021.90 1021.12 1020.20 1019.17 1018.06 1016.91 1015.78 1014.72 1013.76 1012.94 1012.26 1011.71 1011.30 1010.98 1010.75 1010.58 1010.44 1010.31 1010.20 1010.10 1010.04 1010.03 1010.09 1010.25 1010.51 1010.89 1011.37 1011.93 1012.56 1013.23 1013.90 1014.57 1015.22
1025.71 1025.25 1024.84 1024.48 1024.17 1023.88 1023.61 1023.32 1022.98 1022.55 1022.00 1021.32 1020.50 1019.56 1018.52 1017.43 1016.32 1015.24 1014.23 1013.32 1012.53 1011.87 1011.32 1010.89 1010.54 1010.26 1010.03 1009.83 1009.67 1009.53 1009.43 1009.39 1009.42 1009.55 1009.78 1010.12 1010.56 1011.09 1011.69 1012.34 1013.01 1013.68 1014.35
1025.49 1025.02 1024.59 1024.22 1023.89 1023.59 1023.33 1023.06 1022.76 1022.39 1021.94 1021.37 1020.67 1019.86 1018.94 1017.94 1016.90 1015.84 1014.81 1013.84 1012.96 1012.17 1011.48 1010.90 1010.41 1010.00 1009.67 1009.39 1009.16 1008.99 1008.87 1008.82 1008.84 1008.95 1009.16 1009.47 1009.88 1010.37 1010.92 1011.53 1012.17 1012.83 1013.49
1025.27 1024.78 1024.33 1023.92 1023.55 1023.23 1022.94 1022.66 1022.38 1022.06 1021.68 1021.21 1020.65 1019.97 1019.19 1018.32 1017.38 1016.38 1015.37 1014.37 1013.41 1012.51 1011.69 1010.96 1010.32 1009.78 1009.33 1008.97 1008.68 1008.48 1008.35 1008.30 1008.34 1008.45 1008.65 1008.93 1009.29 1009.72 1010.22 1010.77 1011.36 1011.98 1012.62
1025.00 1024.49 1024.00 1023.55 1023.14 1022.76 1022.43 1022.12 1021.83 1021.53 1021.21 1020.83 1020.38 1019.84 1019.21 1018.48 1017.66 1016.75 1015.79 1014.80 1013.79 1012.81 1011.87 1011.01 1010.23 1009.56 1009.01 1008.56 1008.23 1008.00 1007.87 1007.83 1007.88 1008.00 1008.18 1008.43 1008.74 1009.10 1009.52 1009.99 1010.51 1011.08 1011.68
1024.62 1024.09 1023.58 1023.08 1022.62 1022.18 1021.79 1021.44 1021.12 1020.82 1020.52 1020.20 1019.85 1019.43 1018.93 1018.34 1017.65 1016.86 1015.98 1015.02 1014.01 1012.99 1011.97 1011.01 1010.12 1009.34 1008.69 1008.18 1007.80 1007.55 1007.43 1007.40 1007.45 1007.57 1007.73 1007.93 1008.17 1008.45 1008.77 1009.14 1009.58 1010.08 1010.65
1024.08 1023.55 1023.01 1022.48 1021.97 1021.48 1021.04 1020.63 1020.27 1019.95 1019.65 1019.37 1019.07 1018.75 1018.36 1017.90 1017.34 1016.67 1015.89 1015.00 1014.03 1013.01 1011.96 1010.94 1009.98 1009.12 1008.40 1007.83 1007.42 1007.15 1007.02 1006.99 1007.04 1007.14 1007.26 1007.41 1007.56 1007.73 1007.94 1008.20 1008.54 1008.97 1009.50
1023.39 1022.84 1022.29 1021.73 1021.19 1020.67 1020.18 1019.73 1019.33 1018.97 1018.66 1018.38 1018.13 1017.86 1017.57 1017.21 1016.77 1016.22 1015.55 1014.76 1013.86 1012.87 1011.84 1010.80 1009.81 1008.91 1008.15 1007.54 1007.10 1006.81 1006.67 1006.63 1006.66 1006.73 1006.80 1006.86 1006.92 1006.98 1007.06 1007.20 1007.44 1007.79 1008.27
1022.56 1022.00 1021.44 1020.87 1020.32 1019.78 1019.26 1018.78 1018.34 1017.96 1017.63 1017.34 1017.09 1016.86 1016.62 1016.35 1016.01 1015.57 1015.01 1014.33 1013.52 1012.61 1011.62 1010.61 1009.63 1008.73 1007.94 1007.32 1006.86 1006.56 1006.39 1006.34 1006.34 1006.37 1006.38 1006.37 1006.32 1006.26 1006.22 1006.24 1006.37 1006.64 1007.08
1021.65 1021.07 1020.50 1019.94 1019.39 1018.85 1018.33 1017.84 1017.38 1016.98 1016.62 1016.31 1016.06 1015.84 1015.63 1015.41 1015.15 1014.80 1014.35 1013.77 1013.07 1012.25 1011.34 1010.39 1009.45 1008.56 1007.79 1007.16 1006.70 1006.39 1006.22 1006.14 1006.12 1006.11 1006.07 1005.98 1005.85 1005.69 1005.54 1005.45 1005.48 1005.68 1006.07
1020.70 1020.11 1019.55 1018.99 1018.45 1017.93 1017.42 1016.93 1016.47 1016.05 1015.67 1015.34 1015.07 1014.84 1014.65 1014.46 1014.25 1013.97 1013.61 1013.13 1012.53 1011.82 1011.00 1010.13 1009.25 1008.41 1007.67 1007.06 1006.60 1006.30 1006.13 1006.05 1006.02 1005.99 1005.92 1005.79 1005.60 1005.37 1005.14 1004.97 1004.93 1005.06 1005.41
1019.78 1019.17 1018.59 1018.05 1017.53 1017.02 1016.53 1016.05 1015.59 1015.16 1014.77 1014.42 1014.13 1013.89 1013.69 1013.51 1013.33 1013.10 1012.81 1012.42 1011.92 1011.30 1010.59 1009.80 1009.00 1008.23 1007.54 1006.96 1006.53 1006.25 1006.10 1006.03 1006.02 1006.01 1005.95 1005.82 1005.63 1005.38 1005.12 1004.92 1004.83 1004.92 1005.23
1018.88 1018.24 1017.66 1017.11 1016.60 1016.10 1015.62 1015.16 1014.70 1014.27 1013.87 1013.50 1013.19 1012.93 1012.72 1012.54 1012.37 1012.19 1011.95 1011.63 1011.21 1010.68 1010.06 1009.38 1008.66 1007.96 1007.33 1006.81 1006.43 1006.18 1006.07 1006.05 1006.09 1006.13 1006.13 1006.06 1005.92 1005.72 1005.50 1005.31 1005.23 1005.30 1005.60
1017.98 1017.31 1016.70 1016.14 1015.62 1015.12 1014.65 1014.18 1013.73 1013.30 1012.89 1012.52 1012.20 1011.92 1011.70 1011.52 1011.36 1011.19 1010.99 1010.73 1010.38 1009.94 1009.41 1008.81 1008.18 1007.56 1007.01 1006.55 1006.23 1006.04 1005.99 1006.04 1006.15 1006.29 1006.39 1006.44 1006.42 1006.33 1006.21 1006.11 1006.08 1006.19 1006.49
1017.05 1016.34 1015.69 1015.09 1014.54 1014.02 1013.53 1013.06 1012.61 1012.18 1011.78 1011.41 1011.08 1010.81 1010.58 1010.40 1010.24 1010.10 1009.92 1009.70 1009.42 1009.05 1008.60 1008.09 1007.54 1007.01 1006.53 1006.14 1005.88 1005.76 1005.78 1005.91 1006.13 1006.38 1006.63 1006.84 1006.98 1007.07 1007.12 1007.17 1007.26 1007.46 1007.80
1016.01 1015.25 1014.55 1013.90 1013.30 1012.74 1012.22 1011.74 1011.29 1010.86 1010.47 1010.12 1009.82 1009.56 1009.34 1009.18 1009.03 1008.90 1008.76 1008.57 1008.33 1008.02 1007.65 1007.21 1006.75 1006.29 1005.89 1005.57 1005.37 1005.32 1005.41 1005.62 1005.94 1006.33 1006.74 1007.13 1007.49 1007.80 1008.06 1008.31 1008.59 1008.92 1009.36
1014.85 1014.03 1013.26 1012.54 1011.88 1011.27 1010.71 1010.21 1009.76 1009.35 1009.00 1008.68 1008.42 1008.20 1008.02 1007.88 1007.76 1007.65 1007.53 1007.37 1007.17 1006.91 1006.59 1006.23 1005.84 1005.45 1005.11 1004.86 1004.72 1004.71 1004.86 1005.15 1005.57 1006.08 1006.64 1007.22 1007.80 1008.35 1008.86 1009.36 1009.85 1010.36 1010.94
1013.56 1012.66 1011.82 1011.02 1010.28 1009.62 1009.03 1008.51 1008.07 1007.70 1007.39 1007.14 1006.94 1006.79 1006.66 1006.56 1006.48 1006.39 1006.29 1006.16 1005.99 1005.76 1005.50 1005.19 1004.86 1004.54 1004.26 1004.05 1003.96 1004.00 1004.19 1004.53 1005.02 1005.63 1006.32 1007.08 1007.86 1008.64 1009.41 1010.16 1010.89 1011.62 1012.35
Thickness
5644 5645 5646 5647 5648 5649 5650 5651 5653 5655 5656 5658 5659 5660 5661 5661 5661 5661 5661 5661 5662 5662 5662 5662 5662 5662 5661 5661 5660 5659 5658 5657 5656 5655 5654 5653 5652 5650 5649 5647 5646 5645 5643
5636 5638 5639 5640 5641 5643 5643 5645 5647 5648 5650 5651 5653 5654 5655 5655 5656 5655 5655 5655 5656 5656 5657 5657 5657 5657 5656 5656 5656 5655 5654 5653 5652 5651 5650 5648 5647 5646 5644 5643 5642 5641 5639
5629 5630 5632 5633 5635 5636 5637 5638 5640 5642 5643 5644 5646 5647 5648 5649 5650 5649 5649 5650 5650 5651 5651 5651 5652 5652 5651 5651 5651 5650 5649 5648 5647 5646 5645 5644 5642 5641 5640 5639 5637 5636 5635
5619 5621 5624 5626 5628 5629 5630 5631 5633 5634 5635 5636 5637 5639 5641 5642 5643 5643 5644 5644 5644 5645 5645 5645 5646 5646 5646 5646 5646 5645 5644 5643 5642 5641 5640 5639 5638 5636 5635 5634 5633 5632 5630
5610 5612 5615 5617 5619 5621 5623 5624 5625 5626 5627 5628 5630 5631 5633 5634 5636 5637 5637 5638 5639 5639 5639 5640 5640 5640 5641 5641 5641 5640 5639 5638 5637 5636 5635 5634 5633 5631 5630 5629 5628 5626 5625
5600 5603 5606 5608 5610 5612 5614 5616 5617 5618 5619 5620 5622 5623 5624 5626 5628 5630 5631 5631 5632 5633 5633 5634 5634 5634 5635 5635 5635 5635 5634 5633 5632 5631 5630 5629 5628 5627 5626 5625 5623 5622 5620
5590 5593 5596 5598 5601 5603 5605 5607 5608 5609 5609 5611 5611 5612 5615 5618 5620 5622 5624 5624 5625 5626 5627 5628 5628 5629 5629 5629 5629 5629 5629 5628 5627 5626 5626 5625 5624 5622 5621 5620 5618 5616 5615
5577 5582 5585 5588 5590 5593 5595 5597 5599 5600 5600 5602 5602 5601 5602 5605 5610 5614 5615 5617 5618 5619 5620 5621 5622 5622 5623 5623 5623 5623 5623 5623 5622 5621 5621 5620 5619 5618 5616 5615 5613 5611 5610
5564 5568 5572 5576 5579 5583 5585 5588 5590 5591 5591 5593 5595 5595 5595 5596 5599 5603 5606 5609 5610 5612 5613 5614 5615 5616 5616 5616 5617 5617 5617 5617 5616 5616 5615 5615 5614 5613 5611 5610 5608 5606 5604
5552 5556 5560 5564 5568 5572 5575 5578 5581 5583 5584 5585 5586 5589 5591 5592 5590 5592 5596 5600 5602 5604 5605 5607 5608 5608 5609 5609 5610 5610 5610 5610 5610 5610 5610 5609 5608 5607 5606 5604 5603 5600 5598
5538 5543 5547 5551 5556 5560 5564 5567 5570 5573 5575 5576 5578 5580 5582 5583 5585 5585 5587 5590 5592 5595 5598 5599 5600 5602 5602 5603 5603 5603 5603 5604 5604 5604 5603 5603 5602 5601 5600 5599 5597 5595 5592
5525 5530 5534 5538 5543 5548 5552 5556 5559 5562 5565 5567 5569 5572 5574 5575 5576 5578 5579 5581 5583 5586 5589 5591 5592 5594 5595 5595 5596 5596 5596 5597 5597 5597 5597 5596 5595 5594 5593 5592 5590 5588 5586
5512 5517 5521 5526 5530 5536 5540 5545 5548 5551 5554 5557 5559 5562 5565 5568 5570 5571 5570 5571 5573 5576 5579 5582 5585 5586 5587 5588 5588 5588 5589 5589 5589 5589 5589 5589 5588 5587 5586 5584 5582 5580 5578
5499 5503 5508 5513 5518 5522 5527 5532 5536 5540 5544 5546 5549 5552 5555 5558 5560 5562 5562 5562 5562 5566 5569 5572 5576 5578 5579 5580 5580 5580 5581 5581 5582 5582 5581 5581 5580 5579 5578 5576 5575 5573 5571
5487 5491 5495 5500 5505 5510 5514 5519 5523 5528 5532 5535 5539 5542 5545 5547 5550 5552 5554 5555 5555 5555 5559 5563 5566 5569 5570 5570 5571 5572 5572 5573 5573 5574 5573 5572 5572 5570 5569 5568 5567 5565 5563
5473 5478 5482 5487 5493 5498 5502 5507 5511 5515 5519 5524 5527 5531 5534 5537 5539 5541 5543 5545 5547 5548 5551 5555 5556 5559 5560 5561 5561 5562 5563 5564 5564 5565 5564 5564 5563 5562 5561 5560 5558 5557 5554
5461 5466 5470 5475 5480 5485 5490 5494 5498 5502 5507 5511 5515 5519 5522 5525 5528 5530 5532 5535 5537 5539 5541 5544 5546 5548 5550 5551 5551 5552 5553 5554 5555 5556 5555 5555 5554 5553 5552 5551 5550 5548 5546
5449 5454 5458 5463 5468 5472 5477 5481 5486 5490 5495 5499 5503 5506 5510 5513 5516 5519 5522 5524 5527 5529 5531 5532 5535 5537 5538 5540 5541 5542 5542 5544 5545 5545 5545 5545 5545 5544 5543 5542 5541 5539 5538
5436 5441 5446 5450 5456 5460 5465 5469 5474 5479 5483 5486 5490 5494 5498 5501 5504 5508 5511 5514 5516 5519 5521 5523 5525 5526 5527 5528 5529 5530 5531 5533 5534 5535 5535 5535 5535 5535 5535 5534 5532 5531 5529
5423 5429 5434 5438 5443 5448 5452 5457 5462 5467 5470 5473 5478 5482 5486 5489 5493 5496 5499 5502 5505 5507 5509 5512 5514 5515 5516 5517 5518 5519 5520 5521 5523 5524 5524 5525 5525 5525 5526 5525 5524 5522 5521
5411 5416 5422 5426 5431 5435 5439 5444 5449 5454 5457 5461 5466 5470 5474 5477 5482 5484 5488 5491 5493 5496 5498 5501 5503 5504 5506 5507 5508 5510 5510 5510 5511 5513 5513 5514 5515 5515 5515 5515 5514 5513 5512
5398 5404 5409 5414 5419 5423 5427 5431 5436 5440 5445 5449 5453 5458 5463 5466 5469 5472 5476 5479 5483 5486 5488 5490 5493 5495 5497 5498 5499 5499 5500 5499 5501 5503 5502 5503 5504 5505 5505 5505 5504 5503 5502
5386 5392 5397 5401 5405 5410 5414 5419 5423 5427 5432 5436 5440 5445 5450 5454 5457 5460 5464 5467 5471 5475 5479 5482 5484 5487 5488 5490 5490 5490 5490 5491 5493 5493 5491 5492 5493 5494 5495 5495 5494 5493 5491
5374 5379 5383 5388 5392 5397 5402 5406 5411 5415 5419 5424 5429 5433 5437 5442 5444 5447 5452 5455 5459 5463 5467 5471 5475 5478 5479 5480 5481 5482 5482 5480 5480 5480 5480 5481 5482 5483 5484 5484 5483 5482 5480
5362 5366 5371 5375 5380 5384 5388 5393 5398 5402 5407 5411 5416 5421 5425 5430 5433 5436 5440 5443 5447 5451 5454 5458 5462 5465 5468 5469 5469 5468 5467 5467 5467 5468 5468 5468 5470 5470 5472 5472 5471 5470 5469
5349 5354 5359 5362 5367 5371 5375 5380 5385 5390 5395 5399 5403 5408 5413 5418 5422 5424 5428 5432 5435 5439 5441 5445 5448 5451 5453 5455 5457 5458 5458 5457 5456 5456 5457 5456 5457 5456 5458 5460 5460 5459 5457